Simultaneous Nadir Overpasses (SNOs) Predictions

Prediction of SNOs between AQUA and METOP-B Satellite Orbit:

Table of predicted SNOs for the next 14.0 days since TLE Epoch: 1/31/2014
Index Date (AQUA) Time (AQUA) Lat,Lon (AQUA) SZA (AQUA ) Date (METOP-B) Time (METOP-B) Lat,Lon (METOP-B) SZA (METOP-B ) Distance(km) Time Diff (sec)
1 02/03/2014 02:14:03 73.67, 141.09 90.34 02/03/2014 02:13:15 73.69, 141.03 90.37 3.19 48
2 02/03/2014 03:03:30 -73.74, -51.44 89.59 02/03/2014 03:03:55 -73.74, -51.53 89.60 2.98 25
3 02/05/2014 21:48:17 73.67,-152.47 89.50 02/05/2014 21:47:36 73.69,-152.54 89.54 3.29 41
4 02/05/2014 22:37:44 -73.75, 15.00 90.43 02/05/2014 22:38:16 -73.74, 14.90 90.44 3.28 32
5 02/08/2014 17:22:31 73.72, -86.13 88.68 02/08/2014 17:21:57 73.69, -86.13 88.66 3.20 34
6 02/08/2014 18:11:58 -73.80, 81.35 91.26 02/08/2014 18:12:36 -73.79, 81.43 91.27 2.56 38
7 02/11/2014 12:56:42 73.71, -19.66 87.76 02/11/2014 12:56:16 73.74, -19.62 87.78 2.86 26
8 02/11/2014 13:46:09 -73.78, 147.83 92.18 02/11/2014 13:46:56 -73.79, 147.83 92.19 0.41 47
9 02/14/2014 07:41:16 -73.19,-119.73 93.75 02/14/2014 07:40:08 -73.15,-121.86 93.67 68.75 68
10 02/14/2014 08:30:54 73.75, 46.73 86.85 02/14/2014 08:30:37 73.72, 46.77 86.83 3.00 17
11 02/14/2014 09:20:20 -73.76,-145.66 93.15 02/14/2014 09:21:17 -73.78,-145.78 93.14 3.80 57




NCC Satellite Simultaneous Nadir Overpasses (SNOs) Prediction Service
